Regional Weather Roundup
Issued by NWS

Home | Current Version | Previous Version | Text Only | Print | Product List | Glossary On
Versions: 1 2 3 4 5 6 7 8 9 10 11 12 13 14 15 16 17 18 19 20 21 22 23 24 25 26 27 28 29 30 31 32 33 34 35 36 37 38 39 40 41 42 43 44 45 46 47 48 49 50
000
ASUS44 KMEG 172010
RWRTN
TENNESSEE HOURLY STATE WEATHER ROUNDUP
NATIONAL WEATHER SERVICE MEMPHIS TN
200 PM CST TUE JAN 17 2017

TNZ002-004-019-021-049-052-054-088>092-172100-
WEST TENNESSEE

CITY           SKY/WX    TMP DP  RH WIND       PRES   REMARKS
MEMPHIS INTL   CLOUDY    55  45  68 W7        30.10R
NWS MEMPHIS      N/A     56 N/A N/A MISG        N/A
JACKSON        CLOUDY    56  46  69 SW13      30.07R
DYERSBURG      CLOUDY    54  43  66 W10G17    30.07S
UNION CITY     CLOUDY    52  45  76 W12       30.05R
PARIS          PTSUNNY   52  46  82 W12       30.04R
HUNTINGDON     MOSUNNY   55  50  82 W7G15     30.04R
$$

TNZ008-025-027-028-033-062-065-066-172100-
NORTH MIDDLE TENNESSEE

CITY           SKY/WX    TMP DP  RH WIND       PRES   REMARKS
NASHVILLE      CLOUDY    62  54  74 W7        30.01S
PORTLAND       SUNNY     61  55  82 VRB6G15   30.00F
CLARKSVILLE    CLOUDY    59  46  62 W14G21    30.00F
SMYRNA         CLOUDY    63  61  94 W6        30.02F
GALLATIN       PTSUNNY   63  55  77 SW8       30.03F
CROSSVILLE     LGT RAIN  60  58  92 SW8       30.05F
$$

TNZ061-075-076-078-094-096-097-172100-
SOUTH MIDDLE TENNESSEE

CITY           SKY/WX    TMP DP  RH WIND       PRES   REMARKS
FAYETTEVILLE   CLOUDY    64  63  94 SW9       30.07R FOG
TULLAHOMA      CLOUDY    63  63 100 SW12      30.06S
WINCHESTER     CLOUDY    64  61  88 SW12      30.06F
MCMINNVILLE    CLOUDY    63  63 100 W10       30.04S
COLUMBIA       PTSUNNY  N/A N/A N/A SW14      30.00F
SHELBYVILLE    CLOUDY    64  64 100 SW9       30.04F
$$

TNZ017-018-042-046-047-172100-
NORTHEAST TENNESSEE

CITY           SKY/WX    TMP DP  RH WIND       PRES   REMARKS
TRI CITIES     CLOUDY    57  55  93 CALM      30.06F
ELIZABETHTON   CLOUDY    61  57  88 CALM      30.05F
$$

TNZ012-013-036-069-073-074-172100-
CENTRAL EAST TENNESSEE

CITY           SKY/WX    TMP DP  RH WIND       PRES   REMARKS
KNOXVILLE      CLOUDY    65  57  75 SW20      30.03F
OAK RIDGE      LGT RAIN  60  57  89 W3        30.05S FOG
GATLINBURG     CLOUDY    61  59  94 NW3       30.03F
MORRISTOWN     CLOUDY    61  59  94 SW7G13    30.04S
JACKSBORO      CLOUDY    63  59  88 VRB5G12   30.05F
$$

TNZ083-085-099-172100-
SOUTHEAST TENNESSEE

CITY           SKY/WX    TMP DP  RH WIND       PRES   REMARKS
CHATTANOOGA    CLOUDY    67  58  72 S7        30.08S
$$

SKY/WX REPORTED AS FAIR MEANS FEW OR NO CLOUDS BELOW
12 THOUSAND FEET.




USA.gov is the U.S. government's official web portal to all federal, state and local government web resources and services.